Wind_Speed
27 29 29 30 31 31 31 30 29 29 30 30 30 30 31 30 30 30 29 29 29 29 29 30 31 32 34 34 34 34 33 32 32 32 32 31 31 31 31 31 31 32 32 33 34 34 35 35 35 35 34 33 32 32 31 31 31 31 31 31 31 31 32 32 32 32 32 32 32 33 33 33 33 33 33 33 33 33 33 33 34 34 33 33 33 33
28 29 29 29 29 29 29 28 27 28 30 31 31 31 31 31 31 30 30 29 29 29 30 31 33 34 35 35 34 33 32 31 30 30 30 31 31 31 31 31 32 33 34 34 35 35 35 34 34 33 33 32 31 31 31 31 31 31 31 31 31 32 32 32 32 32 32 33 33 33 33 33 33 33 34 34 34 34 34 34 34 34 34 34 34 34
29 29 29 28 27 27 28 28 28 28 29 31 31 30 30 31 31 31 30 30 30 30 31 33 34 34 34 33 32 31 30 30 29 30 30 30 30 31 31 32 33 34 35 35 35 34 34 33 32 32 32 31 31 31 31 31 31 31 31 31 32 32 32 32 32 32 33 33 33 33 33 33 33 34 34 34 34 34 34 34 34 34 34 35 35 35
28 28 28 27 26 26 26 28 29 30 30 30 30 30 30 30 31 31 31 31 32 33 33 33 33 33 32 31 30 30 29 29 29 29 30 30 31 32 33 34 35 35 35 35 34 33 32 32 32 32 32 32 31 31 31 31 31 31 32 32 32 32 32 32 33 33 33 33 33 33 33 33 34 34 34 34 34 34 34 34 34 35 34 35 35 35
27 27 26 26 26 26 27 28 29 30 30 30 30 30 30 30 31 32 32 33 33 33 33 32 31 30 30 30 30 30 29 29 29 30 31 31 33 34 35 35 35 35 34 33 32 32 32 32 32 32 32 32 31 31 32 32 32 32 32 32 32 32 33 33 33 33 33 33 33 34 34 34 34 34 34 34 34 34 34 34 35 35 35 35 35 35
26 26 26 26 26 27 28 29 29 29 30 30 30 30 31 31 32 32 32 32 32 32 32 31 30 29 29 30 30 30 30 30 31 32 33 34 35 35 35 34 33 32 32 32 32 32 32 32 32 32 32 32 32 32 32 32 32 33 33 33 33 33 33 33 33 33 33 33 33 34 34 34 34 34 34 34 34 34 34 34 34 35 35 35 35 35
27 26 26 26 27 28 28 28 29 29 29 30 31 31 32 32 31 31 31 31 31 31 31 30 30 29 29 30 30 31 31 32 34 34 35 35 34 34 33 32 32 32 32 32 32 32 32 32 32 32 32 32 33 33 33 33 33 33 33 33 33 33 33 33 32 32 32 32 32 32 32 32 33 33 33 33 33 33 33 33 34 34 34 34 34 34
28 27 26 27 28 28 28 28 28 29 30 32 32 32 32 31 30 30 30 31 30 30 30 30 30 29 30 30 30 31 32 33 34 35 35 34 33 32 32 32 31 31 31 31 31 31 31 32 32 32 32 33 33 33 33 33 33 33 33 33 33 33 32 32 31 31 31 31 31 31 31 31 31 31 31 31 31 32 32 32 33 33 33 33 33 34
28 28 27 27 27 28 30 30 30 30 30 31 30 30 29 30 31 31 30 30 30 29 29 29 29 30 30 30 31 32 32 33 33 33 33 33 32 32 32 31 31 31 31 31 31 31 32 32 32 33 33 33 33 33 33 33 33 32 32 32 32 32 31 31 30 30 30 30 30 29 29 29 30 30 30 30 30 31 31 31 32 32 32 32 32 33
26 27 27 27 28 29 32 34 33 31 29 27 26 26 27 30 32 32 31 30 29 28 28 29 29 30 31 31 31 32 33 33 33 33 32 32 31 31 31 31 31 32 32 32 32 32 33 33 34 34 34 33 33 33 32 32 31 31 31 31 30 30 30 30 30 30 29 29 29 29 29 29 29 29 30 30 30 31 31 31 31 32 32 32 32 32
26 27 28 30 31 32 33 33 32 29 26 25 26 26 27 28 30 31 31 31 30 29 28 28 29 30 31 31 32 32 33 33 34 33 32 31 31 30 30 31 32 32 33 33 33 34 34 34 34 34 34 33 32 31 31 30 30 30 30 30 29 29 29 29 29 29 29 29 29 29 29 29 29 30 30 30 31 31 31 32 32 32 32 33 33 33
28 29 30 32 33 33 32 30 27 25 25 26 28 29 28 27 27 28 30 31 31 30 29 29 29 30 31 32 33 33 33 33 33 33 32 31 30 31 31 32 34 34 35 35 35 35 35 35 35 34 33 32 31 30 30 30 30 30 30 29 29 29 29 29 29 29 29 29 29 30 30 30 30 31 31 31 32 32 32 32 33 33 33 33 34 34
29 31 32 33 33 31 28 26 25 25 27 28 28 29 28 27 27 27 29 30 30 30 29 30 30 31 32 33 33 33 32 32 32 31 31 31 31 32 33 34 35 36 36 36 36 37 36 36 35 34 33 32 31 31 31 31 31 30 30 29 29 29 30 30 30 30 30 30 30 30 30 31 31 31 31 32 32 32 33 33 33 33 33 34 34 34
30 31 32 31 29 27 25 26 27 28 29 28 28 28 28 28 28 28 29 29 29 29 30 31 32 33 33 32 31 31 30 30 30 30 30 31 32 33 34 35 35 36 36 36 36 36 36 35 34 34 33 33 33 33 33 32 31 30 30 30 30 30 31 31 31 31 31 30 31 31 31 31 31 32 32 32 33 33 33 33 33 34 34 34 34 35
31 31 29 27 26 26 27 28 29 29 29 28 28 28 28 29 28 28 28 29 29 30 31 33 34 34 32 31 29 28 27 27 28 29 31 33 35 35 35 35 35 36 36 35 35 36 35 34 34 34 34 34 34 34 33 32 31 31 31 31 31 31 31 31 31 31 31 31 31 31 31 31 32 32 32 32 33 33 33 33 33 33 33 34 34 34
30 29 28 28 27 27 29 29 29 29 29 29 28 28 28 28 28 27 28 29 30 31 32 32 33 33 32 31 28 26 25 26 28 30 33 35 37 37 35 34 35 36 36 35 35 35 35 34 34 34 35 35 35 34 33 32 32 32 32 32 32 32 32 32 32 32 32 32 32 31 31 31 32 32 32 32 32 32 32 32 32 33 33 33 33 33
30 29 29 30 30 30 30 29 29 29 29 28 28 27 27 27 27 28 29 30 31 31 31 32 31 31 32 31 29 26 25 27 30 33 35 36 38 37 35 33 34 35 35 34 34 34 34 34 35 35 35 36 35 34 33 33 32 32 32 32 32 32 32 33 33 33 33 32 31 31 31 31 31 31 31 31 31 31 32 32 32 32 32 33 33 33
31 30 30 31 30 30 30 30 29 28 28 27 27 27 27 28 29 30 32 32 32 32 32 33 32 31 31 30 29 28 29 30 33 35 37 38 38 38 35 33 32 32 33 34 34 34 34 35 35 36 36 35 35 34 33 33 33 33 33 33 33 33 33 33 33 33 32 31 30 30 30 30 30 30 30 30 30 31 31 31 31 32 32 32 33 33
31 31 31 31 32 32 31 29 29 28 27 27 27 28 29 30 32 32 32 33 34 34 35 34 32 30 30 29 30 32 34 34 34 36 37 38 38 37 34 32 31 32 33 34 34 34 35 35 36 36 36 35 35 34 33 33 33 33 33 33 34 34 33 33 32 32 31 31 31 30 30 29 29 29 29 29 29 30 30 30 31 31 32 32 32 33
32 31 30 31 31 31 30 29 28 27 27 27 29 31 33 33 33 33 33 33 34 35 35 33 30 28 28 30 34 37 39 37 36 36 35 36 36 35 33 31 31 31 33 34 35 35 35 35 36 36 36 35 35 34 34 34 34 34 34 34 34 33 33 32 31 31 31 30 30 30 30 29 29 29 29 29 29 30 30 30 31 31 32 32 32 33
32 32 30 29 29 29 29 29 28 28 29 30 32 34 35 36 35 35 35 35 34 32 29 26 27 29 32 34 38 42 42 38 35 33 33 34 34 34 33 31 30 31 33 35 36 35 35 35 35 35 35 35 35 35 35 35 35 35 34 34 33 32 31 31 30 30 30 30 30 30 30 30 30 30 31 31 31 31 31 31 31 31 31 31 32 32
32 32 31 30 29 29 29 30 30 30 30 31 33 35 35 37 37 36 35 32 29 27 27 28 32 35 37 40 42 43 40 34 31 30 31 33 34 34 33 31 30 31 33 35 36 35 34 34 34 35 35 36 36 36 36 36 35 34 34 33 32 31 31 30 30 30 30 30 31 31 31 31 31 32 32 32 32 32 32 30 30 30 30 30 30 30
31 31 30 29 29 29 30 31 31 31 31 32 34 35 36 34 33 31 29 28 28 30 33 36 39 39 39 39 39 38 35 30 27 27 28 30 32 33 33 32 32 32 33 34 34 34 34 34 34 35 36 36 37 37 36 36 35 34 33 32 31 31 30 30 30 30 30 31 31 31 31 31 31 31 31 31 30 30 30 29 29 29 29 29 29 29
27 28 27 27 28 28 29 29 30 30 31 33 34 34 32 30 29 29 30 32 35 38 40 39 38 37 37 36 35 34 32 28 25 25 26 28 31 33 33 33 32 33 33 34 34 33 34 34 35 36 37 37 37 37 36 35 34 33 32 32 31 31 31 30 31 31 31 31 31 30 30 29 29 29 28 28 27 27 27 27 28 28 29 29 29 29
24 25 25 26 26 27 27 28 28 29 30 31 31 31 30 32 34 36 38 39 38 37 36 34 33 33 33 32 32 31 31 28 26 25 26 28 30 32 33 32 32 32 34 34 34 33 34 35 36 37 37 38 37 36 36 34 33 33 32 31 31 31 31 31 32 31 31 30 29 28 28 27 27 27 27 27 27 27 27 28 28 29 29 30 30 30
22 22 23 24 25 25 25 26 27 28 28 29 30 31 33 35 36 38 38 36 33 31 30 30 31 30 30 30 30 30 31 30 28 26 26 27 29 32 32 31 31 31 33 34 34 34 34 35 36 37 37 37 37 36 35 34 34 33 33 32 32 32 33 33 32 31 31 30 29 28 28 28 28 27 27 28 28 28 28 29 29 30 30 30 30 30
21 22 23 24 25 25 26 26 27 28 28 29 30 30 31 31 31 31 30 29 28 28 28 29 29 29 29 28 29 30 32 31 30 28 26 27 28 30 31 31 30 31 32 34 34 34 34 35 36 37 37 37 36 35 35 35 35 34 34 34 34 34 34 33 33 32 31 30 30 29 29 29 29 29 29 29 29 29 29 29 29 29 30 30 31 31
24 25 25 25 26 26 27 28 29 30 31 31 30 28 26 25 26 27 27 27 26 27 27 28 28 28 28 28 29 31 33 32 31 29 26 26 27 29 30 30 30 30 32 34 35 35 34 34 34 35 35 35 35 34 35 36 36 36 36 36 36 35 35 34 33 32 32 31 31 31 30 30 30 30 29 29 29 29 28 28 28 28 29 30 31 32
27 27 27 27 28 29 30 31 32 31 30 28 25 22 20 20 22 24 25 25 25 26 27 27 28 28 29 29 31 32 33 33 31 27 24 24 26 28 30 30 30 31 33 34 35 36 34 32 31 31 32 33 34 35 36 37 38 38 38 38 38 37 36 35 34 33 33 32 32 32 31 31 31 30 30 29 29 28 28 27 27 28 28 29 30 31
29 29 30 30 31 31 31 31 30 28 25 23 20 19 18 19 21 22 23 24 24 25 27 28 29 30 30 30 31 31 32 32 29 25 24 24 27 29 31 31 32 32 32 33 34 34 33 32 30 28 29 31 34 36 38 38 39 39 40 40 39 38 37 36 35 34 34 34 33 33 32 32 31 30 30 29 28 28 27 26 26 27 28 29 29 30
31 31 32 32 31 30 28 27 25 23 22 21 20 20 20 20 21 22 22 23 23 25 26 28 29 30 30 30 29 28 30 33 31 27 26 27 29 31 32 32 33 33 32 31 30 31 32 33 33 31 31 32 34 36 37 38 38 39 39 40 40 39 38 37 36 36 35 35 34 34 33 32 31 31 30 29 28 27 26 25 25 26 27 28 29 30
32 32 31 30 29 27 25 24 23 22 22 22 22 21 21 21 21 22 22 22 23 24 25 27 29 30 30 30 29 30 33 35 33 30 28 29 30 31 32 33 34 34 33 31 31 31 29 32 35 37 36 34 35 35 36 37 38 38 39 39 40 40 38 38 37 37 37 36 36 35 34 33 32 31 30 29 28 27 26 25 24 25 27 28 30 31
30 30 28 27 26 25 24 23 23 23 23 23 22 22 22 21 22 22 22 22 22 23 25 26 28 30 31 32 33 34 35 36 34 31 29 29 30 32 33 34 35 35 35 34 33 33 32 34 37 39 39 37 36 35 36 37 38 38 39 39 40 41 40 39 39 39 39 38 37 36 35 34 33 32 31 30 28 27 26 25 24 25 26 28 30 32
28 27 26 25 25 25 24 24 24 24 24 23 23 23 22 22 22 22 22 22 23 23 24 26 27 29 31 32 34 35 36 36 33 31 30 30 32 33 35 36 36 37 37 35 34 34 34 36 37 37 38 38 37 36 36 37 38 39 39 39 39 40 41 40 40 40 40 39 38 38 37 36 35 34 32 31 29 28 27 26 25 25 26 28 30 32
25 25 25 25 25 25 25 26 25 25 25 24 24 24 23 24 24 24 24 24 23 24 24 25 26 28 29 31 34 36 37 36 35 33 32 33 35 36 37 38 38 37 38 37 36 36 35 36 36 36 37 37 38 38 37 37 37 38 38 38 39 40 40 40 40 40 40 39 39 39 38 38 37 36 34 33 31 29 28 27 26 27 27 28 29 31
25 25 25 25 25 26 26 26 26 26 26 26 25 25 25 25 25 25 25 24 24 24 25 25 26 27 28 30 32 35 37 37 36 35 35 35 37 38 39 40 40 40 40 40 39 38 36 36 37 38 37 37 37 37 38 38 38 38 38 39 40 40 40 39 39 39 39 39 40 40 40 39 39 38 36 34 32 31 29 28 28 28 29 29 29 30
25 26 26 25 25 26 26 26 26 26 27 27 27 26 26 26 26 26 25 25 25 26 26 27 27 28 29 30 32 34 36 37 37 36 36 36 37 38 39 40 41 41 41 41 41 40 39 38 38 38 36 35 35 35 38 39 39 40 40 41 41 40 40 39 38 38 38 39 40 41 41 40 40 39 38 36 34 33 31 30 29 30 30 31 31 32
25 26 26 26 26 26 26 27 27 27 28 28 28 28 27 27 27 27 27 27 27 27 28 28 29 30 30 31 32 33 34 35 36 36 35 35 35 36 37 39 39 38 38 39 40 40 41 39 38 37 36 36 36 36 39 39 40 41 42 42 41 40 40 38 38 37 38 39 40 41 42 41 40 40 39 38 36 35 34 33 32 32 33 34 34 35
25 26 26 26 26 27 27 27 28 28 29 29 29 28 28 28 27 27 27 27 28 28 28 29 30 31 31 32 32 33 34 34 34 34 34 33 32 32 33 35 36 36 36 36 37 39 40 40 39 38 38 38 39 40 41 41 41 42 43 42 42 40 39 38 37 38 39 40 41 41 41 41 41 41 40 39 38 38 37 37 36 36 37 38 38 38
26 26 27 26 26 27 27 27 28 29 29 29 29 28 28 28 28 27 27 27 28 28 29 29 30 31 32 32 33 33 34 34 34 33 32 32 31 30 31 32 34 35 35 35 36 37 39 39 40 40 39 40 40 40 42 41 41 42 42 41 40 40 40 39 39 40 40 40 40 40 41 41 41 41 40 39 39 38 38 38 38 38 39 39 39 40
26 26 26 27 27 28 28 28 28 28 28 29 29 28 28 27 28 28 28 28 29 29 29 30 31 32 32 33 33 34 34 34 33 33 32 32 31 30 30 31 32 33 34 35 36 36 37 38 39 40 40 41 41 41 42 41 42 42 41 40 41 42 42 42 41 40 40 40 40 40 40 41 41 40 40 40 39 39 39 39 40 40 40 40 39 40
25 26 27 27 28 29 29 29 29 28 28 28 28 28 27 27 27 28 29 30 30 30 30 31 32 33 34 35 35 34 34 34 34 33 33 32 31 31 30 30 31 31 33 34 35 36 36 37 38 39 40 40 40 40 40 43 43 42 41 41 42 43 44 43 41 39 38 39 40 41 41 41 41 41 41 41 41 41 40 40 40 40 40 40 40 40
26 27 27 28 28 29 29 29 29 28 28 27 27 27 27 27 27 27 28 29 30 30 31 31 32 33 35 37 37 37 36 35 35 34 33 32 31 30 30 30 30 31 32 33 35 36 37 37 37 38 39 40 40 40 40 42 43 43 42 42 42 41 40 41 42 41 41 41 41 42 41 41 41 41 41 41 42 42 42 42 40 40 40 40 40 40
26 27 27 28 28 28 28 28 28 28 28 28 28 28 27 27 27 27 28 29 30 30 31 32 32 34 35 36 37 37 38 37 36 34 33 32 31 30 30 31 31 32 32 33 35 36 36 37 37 38 38 39 39 40 41 42 42 43 43 43 42 40 40 41 42 43 42 42 42 42 42 41 41 41 41 42 42 42 42 42 42 42 41 40 40 40
25 26 27 27 27 27 27 27 27 27 27 27 28 28 27 27 27 27 28 29 30 31 32 32 33 33 33 34 35 36 38 38 37 36 34 33 31 31 31 32 32 33 33 34 34 35 36 37 38 38 38 39 40 41 42 43 43 43 43 42 41 40 41 41 41 41 42 42 43 42 42 41 41 40 41 41 42 42 41 41 42 42 41 40 39 39
25 26 26 26 27 27 27 27 27 27 27 27 27 27 27 27 27 28 28 29 31 32 32 32 32 32 33 34 35 36 37 38 38 37 36 35 34 33 33 33 33 34 34 34 35 34 35 36 37 38 39 40 40 41 41 42 42 42 42 41 41 40 40 41 41 41 41 41 41 42 42 41 40 39 40 41 42 42 42 41 41 41 40 40 39 38
25 26 27 26 27 27 27 27 27 27 28 28 27 27 26 27 28 29 29 30 31 32 32 33 32 33 33 35 35 36 36 37 37 38 38 37 36 36 35 35 34 34 34 35 35 35 36 36 37 37 38 39 40 41 40 39 39 39 40 40 40 40 40 40 41 40 40 39 39 40 41 40 39 38 40 41 42 42 42 41 40 40 40 39 39 38
25 26 26 26 27 27 27 27 28 28 29 28 27 27 27 27 28 29 30 31 31 32 33 33 33 34 34 35 35 35 35 35 36 37 38 38 37 37 37 37 36 36 35 35 35 36 36 36 36 35 35 36 37 39 39 38 38 38 38 39 39 39 40 40 40 39 38 38 38 39 40 40 40 41 41 42 42 41 41 41 40 40 39 39 38 38
25 25 26 26 27 28 29 29 29 29 29 28 28 28 28 28 29 30 31 31 32 32 33 33 34 34 35 36 36 35 35 35 36 37 38 37 37 37 38 38 38 37 36 36 37 37 37 36 35 33 31 31 32 34 36 36 36 36 37 37 37 37 38 39 38 38 37 38 39 40 40 40 40 40 39 40 40 41 42 42 41 40 39 38 38 38
25 25 25 26 27 28 29 29 29 29 29 29 29 30 30 31 31 31 31 32 33 33 33 33 34 35 35 36 36 36 35 36 37 37 38 38 37 37 38 38 38 37 36 37 37 37 37 35 34 31 28 26 26 27 30 32 34 34 34 34 35 35 35 37 37 38 38 39 40 41 41 41 40 39 37 38 39 41 42 42 41 40 39 39 39 39
25 25 26 26 27 28 29 29 29 29 29 29 30 31 32 32 33 33 33 33 34 34 34 34 34 34 34 35 35 35 35 36 37 37 38 38 38 38 38 38 38 37 37 36 36 36 34 33 31 30 28 26 23 23 25 28 30 32 32 33 34 34 35 36 38 39 40 40 41 41 41 41 40 39 38 37 38 39 40 41 41 41 40 39 39 39
Wind_Direction
295 296 298 299 301 303 303 305 306 307 307 308 308 309 310 310 309 309 309 308 308 307 306 305 304 304 303 302 301 301 301 301 301 300 300 300 300 299 299 299 299 299 299 299 299 298 298 298 297 296 295 294 294 294 293 293 292 292 291 291 290 290 289 288 288 287 286 285 285 284 283 282 281 280 279 278 277 277 276 275 274 273 273 272 271 270
297 299 300 302 304 305 305 306 306 306 306 307 308 310 312 312 311 310 309 308 307 305 304 304 304 303 303 303 302 302 301 301 301 301 300 300 300 300 299 299 299 299 299 299 298 298 298 298 297 297 296 296 296 295 294 294 293 292 292 291 291 290 289 289 288 287 287 286 285 285 284 283 282 281 280 279 278 277 276 276 275 274 273 272 272 271
300 302 303 305 305 305 304 305 306 306 306 308 309 311 312 312 311 309 308 307 306 304 303 304 305 304 304 303 303 302 302 301 301 300 300 299 299 299 299 299 299 299 299 298 298 299 298 299 298 298 298 297 297 296 295 294 293 292 292 291 291 290 289 289 288 288 287 287 286 286 285 284 283 282 281 279 278 278 277 276 275 275 274 273 272 270
301 303 304 305 305 304 303 304 305 307 307 309 310 312 312 310 309 308 307 306 306 305 305 305 306 305 304 304 303 302 302 301 301 300 299 299 299 299 299 299 299 299 299 299 299 300 300 300 300 299 299 298 297 296 295 294 294 293 292 292 291 290 290 289 289 288 288 287 286 285 285 284 283 281 280 279 279 278 277 276 275 274 274 273 272 271
301 302 303 304 304 303 303 304 306 308 309 310 310 311 310 307 306 306 306 307 307 307 306 306 305 304 303 302 302 302 301 300 299 298 298 298 298 298 298 299 299 300 301 301 301 301 301 300 300 300 299 298 297 297 296 295 294 294 293 292 291 291 290 289 289 288 287 286 285 284 283 282 281 280 279 278 278 277 276 276 275 274 273 273 272 271
299 300 301 302 302 302 303 305 307 309 310 310 309 307 306 305 305 306 307 307 307 306 306 305 304 303 301 301 300 299 299 298 297 297 297 298 298 299 300 301 302 302 302 301 301 301 301 301 300 300 299 298 297 297 296 295 294 293 293 292 291 290 290 289 288 287 286 286 285 283 282 281 280 279 279 278 277 277 276 276 275 274 274 273 272 272
298 298 299 300 301 301 302 304 307 309 309 308 306 304 304 304 306 307 307 307 306 305 304 304 303 301 300 299 299 298 298 297 298 298 299 301 302 303 304 303 303 302 301 302 302 302 301 300 300 299 299 298 297 296 295 294 293 292 292 291 290 290 289 288 288 287 287 286 285 284 283 282 281 280 280 279 278 278 277 276 276 275 274 274 273 273
298 299 299 300 301 302 303 304 306 308 308 305 304 303 304 306 307 306 306 306 305 304 304 303 302 301 300 299 299 299 299 299 301 302 303 304 305 305 305 304 303 302 302 301 301 301 300 300 299 298 298 297 296 295 295 294 293 292 292 292 291 291 290 290 289 289 288 288 287 286 285 284 284 283 282 281 280 279 278 277 277 276 276 275 274 273
297 299 300 300 301 302 304 305 306 307 306 304 303 304 307 308 307 306 305 305 305 304 304 303 303 302 301 300 300 301 301 302 303 304 305 305 305 305 304 304 303 302 302 301 301 300 299 299 298 297 297 297 296 296 296 295 294 294 294 293 293 292 292 292 291 291 290 290 289 288 287 286 285 284 283 282 282 281 280 279 278 278 277 276 275 275
296 297 298 300 301 302 303 305 306 306 304 303 304 306 308 307 307 306 306 305 305 305 305 304 303 303 303 302 303 303 304 305 305 305 305 305 304 304 303 303 303 302 302 302 301 299 299 298 298 298 298 298 298 298 297 297 296 296 295 295 294 294 294 293 293 292 292 291 291 290 289 288 287 286 285 284 283 282 281 281 280 279 278 277 276 276
297 297 298 300 303 304 303 302 303 304 305 306 307 306 304 304 305 306 306 306 306 306 305 304 303 303 303 304 305 306 306 307 307 307 306 306 305 305 304 303 303 302 302 302 301 300 300 300 300 301 301 302 301 300 300 299 298 297 297 296 296 296 295 295 294 293 293 293 292 291 290 289 288 287 286 285 284 283 282 281 280 280 279 278 277 276
298 299 299 302 304 304 302 300 301 304 307 308 307 305 304 303 303 304 304 305 305 305 305 304 303 303 303 304 305 307 308 308 308 307 307 306 306 305 305 304 304 303 303 302 301 301 302 303 303 304 304 304 303 303 302 301 300 299 299 298 298 298 297 296 295 294 294 293 292 291 290 289 288 287 286 285 284 283 282 281 281 280 279 278 277 276
298 300 301 301 302 301 301 302 304 306 307 306 305 304 304 304 304 303 302 302 303 304 304 304 303 303 304 305 306 307 307 307 306 306 305 305 305 305 305 305 304 304 303 303 303 304 305 306 307 307 307 306 305 305 304 303 302 301 300 300 300 299 298 297 296 295 294 293 292 291 290 289 288 287 286 285 284 283 282 281 281 280 279 278 277 276
300 301 301 299 299 300 302 304 305 305 304 303 302 301 302 303 304 303 302 302 302 302 303 302 302 303 304 305 306 306 305 304 304 304 303 303 304 304 305 304 304 304 304 304 304 306 308 308 308 309 309 308 308 307 307 306 304 302 301 301 300 299 298 297 296 295 294 293 292 291 290 289 288 287 286 285 284 283 282 281 280 279 279 278 277 276
303 303 301 300 300 300 301 302 302 302 301 300 300 301 302 303 303 303 303 302 302 302 303 303 303 303 304 305 306 307 306 304 302 302 303 303 304 304 305 304 304 304 305 305 305 307 309 308 308 308 309 309 309 308 307 305 303 302 301 300 299 298 298 297 297 296 295 294 293 292 290 289 288 287 286 285 284 283 283 282 281 280 279 279 278 277
303 302 300 299 299 299 300 300 300 300 300 300 300 301 302 303 303 303 302 301 302 303 303 303 303 303 304 305 306 307 306 304 303 303 304 304 304 305 305 304 304 304 305 305 305 307 309 309 308 308 308 308 308 307 305 304 302 301 301 300 299 299 299 298 297 296 296 294 293 292 290 289 288 287 286 285 285 284 284 283 282 281 281 280 279 278
300 299 298 298 298 298 299 299 299 299 299 300 301 301 301 301 301 301 299 300 301 302 301 300 300 301 302 304 306 306 306 305 304 304 304 303 304 305 305 305 304 303 304 304 304 306 307 307 307 308 308 308 308 307 305 304 303 302 302 301 300 299 298 298 297 296 295 294 293 291 290 289 288 288 287 286 286 285 284 284 283 283 282 281 281 280
298 298 298 297 297 298 299 299 299 299 299 300 301 301 300 299 299 298 298 298 298 298 298 298 298 297 297 300 302 304 304 304 305 305 304 303 303 305 307 306 303 302 302 302 303 305 305 306 306 307 307 308 307 307 306 305 304 304 303 302 301 300 299 298 298 297 296 295 294 293 292 291 290 289 288 287 286 286 285 284 284 283 283 282 281 280
299 298 298 297 297 298 298 298 298 299 299 300 300 300 300 298 298 298 298 297 296 295 294 294 294 294 295 297 299 301 303 304 305 305 304 303 303 305 307 305 303 301 301 301 303 305 305 306 307 307 308 307 307 307 306 305 305 304 303 303 302 302 301 301 300 299 298 298 296 295 294 293 292 291 290 289 288 287 286 285 284 283 282 281 281 280
297 296 296 296 297 298 297 297 296 297 297 298 298 299 298 297 298 298 297 296 295 294 294 293 293 295 297 298 299 300 302 304 305 304 303 301 302 304 305 304 302 300 300 301 302 305 305 306 307 308 308 308 307 307 306 305 305 304 305 305 305 304 304 304 303 301 300 299 298 298 297 295 294 294 292 291 290 288 286 285 284 283 282 281 280 280
293 292 292 293 295 296 295 295 295 295 296 298 299 299 298 298 297 297 297 296 296 296 296 296 297 298 299 299 299 300 302 304 304 303 302 301 301 302 303 303 302 300 300 301 303 305 306 307 307 307 307 307 306 306 306 306 307 307 306 306 306 306 306 305 304 304 302 301 300 299 298 297 296 295 293 292 290 289 287 286 285 284 283 282 281 280
290 291 292 293 293 293 293 294 296 297 299 301 301 299 297 298 297 297 298 298 299 299 300 299 298 298 298 298 298 300 302 303 303 302 300 298 298 299 302 302 301 299 298 300 304 306 307 306 305 305 305 306 307 308 309 309 309 309 308 308 308 308 308 307 307 305 304 302 301 299 298 296 295 293 292 290 289 288 287 286 285 284 283 283 282 281
292 293 295 296 296 296 296 298 299 301 303 304 303 301 302 302 301 302 303 303 302 301 300 299 298 298 298 298 299 301 304 304 304 301 298 295 295 297 302 303 302 300 298 301 304 306 306 305 304 304 305 307 309 310 312 312 311 311 310 310 310 309 309 308 307 305 303 302 300 299 297 296 294 293 292 290 290 289 288 287 286 285 284 283 283 282
295 296 297 297 297 298 298 299 300 302 303 303 303 304 305 306 306 305 303 300 298 298 298 298 299 299 299 300 302 304 306 307 304 300 295 292 293 296 301 303 302 301 300 302 303 304 304 304 304 304 306 308 311 313 314 314 313 312 311 311 310 309 308 307 306 304 303 302 301 300 299 298 297 296 295 294 293 292 291 290 289 288 287 287 285 284
293 293 293 294 295 296 297 298 299 300 300 300 300 300 300 299 297 294 293 293 294 296 298 300 300 300 301 303 304 305 308 309 305 299 295 294 294 297 300 302 301 300 301 303 304 304 303 303 304 305 307 309 312 314 315 315 314 314 313 312 310 309 308 308 307 307 306 306 306 305 304 303 302 301 300 298 297 296 295 293 292 291 290 289 288 287
292 292 293 294 296 297 298 297 297 296 295 294 293 293 293 293 292 292 292 294 296 298 300 301 300 300 301 303 303 304 308 309 307 301 297 296 295 297 300 302 302 300 301 303 304 304 304 304 304 305 307 310 313 315 316 316 316 315 313 312 311 310 311 311 311 311 311 311 311 310 308 307 305 304 302 301 299 298 296 294 293 292 291 290 289 288
304 303 303 302 302 301 300 297 295 292 291 290 290 291 294 295 295 296 297 297 298 300 301 300 299 299 300 301 301 302 306 308 307 304 301 298 296 296 299 302 303 301 301 302 303 304 304 303 304 305 307 311 314 315 316 315 315 314 312 312 313 313 314 314 315 315 315 314 313 312 310 308 306 304 303 301 299 297 295 294 293 292 291 290 289 287
315 312 309 306 303 300 297 294 292 292 292 292 294 296 298 298 297 296 296 297 299 301 300 298 297 297 298 298 299 302 304 306 306 306 305 300 295 294 298 302 303 303 303 303 303 304 303 303 303 305 308 311 312 313 313 313 313 313 313 315 316 316 316 317 316 316 315 314 313 312 310 308 306 304 302 300 299 297 296 295 294 294 292 291 289 287
315 311 307 304 301 298 297 296 296 297 298 300 303 304 303 299 296 295 295 298 301 300 298 297 296 296 296 297 300 301 303 304 307 309 307 302 296 295 299 302 303 304 304 304 306 306 304 303 304 305 307 309 310 310 311 313 314 315 316 318 319 319 318 318 318 316 315 314 313 311 310 308 306 305 303 302 301 300 299 298 297 296 294 292 290 288
310 307 304 302 302 301 302 303 305 307 309 311 312 311 307 302 298 297 298 300 300 299 297 296 296 295 296 298 300 300 300 304 308 311 307 302 298 298 301 302 304 305 306 307 307 307 306 305 305 305 306 308 308 309 311 313 315 317 318 320 320 320 319 319 318 317 315 314 313 312 311 310 309 308 306 305 304 303 301 301 299 298 296 294 292 292
304 303 304 305 306 308 310 312 314 316 317 318 316 313 310 306 303 301 300 299 297 296 295 295 295 295 295 296 296 296 296 302 308 310 306 302 299 299 302 303 304 305 306 306 305 305 306 306 307 307 307 307 308 309 310 312 314 316 318 318 319 319 319 318 317 316 316 315 315 315 314 314 313 312 310 309 307 306 305 304 302 300 298 297 295 295
303 305 307 310 312 314 316 317 318 319 319 318 317 315 312 308 304 301 298 296 294 293 293 293 294 294 294 292 290 289 291 299 307 310 306 302 299 299 301 302 303 304 305 304 301 300 300 302 305 307 308 307 307 308 309 311 313 315 316 316 316 317 317 318 317 316 317 317 318 318 318 317 317 316 314 313 311 309 307 306 304 303 301 299 297 296
307 310 314 317 318 319 319 319 319 319 318 317 316 314 312 308 305 301 298 296 294 293 292 292 293 293 293 291 290 289 292 298 304 308 306 301 298 299 301 302 302 302 303 303 300 298 296 297 300 304 306 306 306 307 308 310 312 314 315 314 315 315 317 317 317 317 318 319 320 321 321 321 320 319 318 316 314 311 309 307 306 304 302 300 298 296
314 317 320 322 322 321 321 321 320 319 318 317 315 314 312 310 307 305 302 300 298 296 294 292 292 292 292 292 291 292 295 300 306 309 306 301 298 299 301 301 301 301 302 301 300 299 297 296 298 301 303 305 305 306 307 309 311 313 314 313 312 313 315 316 316 317 318 320 321 321 323 323 323 321 320 318 316 313 311 308 306 305 303 300 297 295
319 321 322 323 322 322 322 322 322 320 318 317 316 315 314 313 311 310 308 306 304 302 299 297 295 294 293 292 291 292 296 304 310 311 308 303 301 300 300 300 300 300 301 300 300 299 298 298 298 300 301 303 304 305 306 308 310 312 313 312 311 311 312 314 315 316 317 319 320 321 322 323 323 322 320 319 317 315 312 309 307 306 304 302 299 296
320 320 321 321 322 321 321 321 320 319 318 317 317 317 316 316 314 313 313 312 310 309 307 305 303 301 297 294 292 293 297 305 310 311 310 307 304 301 299 299 299 300 299 299 299 298 298 298 299 300 301 301 302 304 306 309 310 310 310 310 310 311 312 313 314 314 315 316 318 319 320 321 321 320 320 319 318 316 313 310 308 308 307 306 304 301
320 320 320 321 320 320 319 319 318 318 318 317 318 318 318 317 316 316 316 316 315 314 313 312 311 309 306 303 299 297 300 305 309 311 310 308 305 301 298 297 299 299 298 297 297 298 298 298 299 300 300 299 299 301 304 308 309 309 309 309 310 310 311 312 313 313 313 313 314 316 318 318 319 319 319 319 319 317 315 312 311 311 311 311 309 307
320 320 319 320 320 319 318 317 317 317 318 317 317 318 318 317 317 317 317 317 317 317 316 314 313 312 311 309 306 305 305 306 308 309 309 308 305 301 298 298 300 301 300 299 299 298 298 297 296 297 298 298 298 299 302 304 306 306 308 309 309 309 309 311 311 311 310 310 312 314 316 317 317 318 318 319 319 318 317 316 315 315 314 313 311 309
321 320 318 318 319 319 318 317 317 317 318 317 317 317 317 317 318 318 318 318 318 317 316 314 313 313 313 313 312 311 310 310 310 310 310 310 308 306 304 302 302 303 304 304 302 300 298 296 295 294 295 297 298 300 302 303 304 304 306 308 308 308 308 309 309 309 309 309 310 312 314 316 317 317 317 318 318 317 315 315 315 315 314 313 311 310
321 319 318 318 319 319 318 317 317 317 317 318 318 318 317 318 319 319 319 319 318 318 317 316 316 316 316 316 316 315 315 314 314 315 315 315 315 313 310 307 305 306 307 306 304 302 299 296 295 295 295 295 296 298 300 301 302 303 304 304 304 304 307 308 308 308 309 309 310 311 312 314 315 315 314 314 313 312 311 311 311 312 311 310 308 308
319 318 316 319 321 321 319 318 318 318 318 318 318 318 319 321 322 322 321 321 321 320 320 320 320 320 319 319 319 319 318 318 318 319 319 319 318 317 314 311 309 308 307 306 304 302 300 297 296 296 295 295 296 296 297 298 300 302 301 300 300 302 305 307 307 308 309 310 310 311 311 311 312 312 312 312 311 311 310 309 309 309 309 308 306 305
317 317 318 320 321 321 320 320 320 320 319 319 319 320 321 322 322 322 321 321 322 322 323 323 322 321 321 322 323 323 322 322 322 321 321 321 320 319 316 314 312 311 309 306 304 303 301 299 297 296 296 296 295 295 296 298 300 301 300 299 300 302 304 306 308 309 308 309 310 310 310 310 310 311 311 311 311 311 310 309 307 305 305 305 305 305
318 319 320 320 320 320 320 321 321 322 323 323 322 322 323 324 323 321 320 319 319 320 323 323 322 320 319 320 322 324 326 326 325 324 323 323 322 320 318 317 316 314 312 308 305 304 304 302 299 297 298 298 297 295 294 296 298 300 300 300 300 300 299 302 307 309 309 309 310 310 310 311 311 311 311 310 309 309 309 307 306 305 305 305 305 305
321 321 321 321 321 321 321 321 323 325 325 324 323 323 325 325 325 323 320 319 319 320 322 323 322 320 317 316 317 320 324 327 328 328 327 326 325 323 321 320 319 318 316 311 307 305 304 303 301 300 301 300 298 295 294 295 296 298 299 301 300 297 295 299 304 307 308 309 310 311 311 311 311 311 309 308 307 307 306 306 306 307 307 307 307 307
321 321 321 321 322 322 321 323 325 326 326 325 324 325 326 327 327 325 321 320 321 322 323 323 321 316 313 313 314 317 320 325 329 330 331 330 328 326 325 323 322 321 319 315 311 308 304 301 301 303 304 302 298 295 294 294 295 296 298 300 300 299 298 301 303 304 305 307 309 310 311 312 311 309 307 305 305 305 305 305 305 306 308 309 309 309
321 320 320 321 322 322 322 324 326 326 326 325 326 326 327 328 327 326 324 323 322 322 323 323 320 314 311 312 314 316 318 321 325 328 330 331 331 330 329 327 326 323 320 317 314 310 306 303 302 303 303 301 298 296 295 294 294 295 297 299 300 300 300 301 302 303 304 305 307 309 311 311 309 306 303 303 303 304 304 305 305 306 308 310 310 311
321 320 321 322 322 323 324 325 325 325 325 325 326 327 328 328 327 326 326 325 324 323 323 322 319 315 312 313 314 315 315 316 318 322 325 327 329 330 329 328 327 325 322 318 315 313 309 307 306 303 300 296 294 294 296 297 296 295 296 298 300 299 299 300 302 304 305 305 305 307 308 308 306 304 303 303 304 304 304 305 306 307 308 309 310 311
321 322 322 323 323 323 324 324 324 324 324 325 326 327 327 328 327 326 325 325 325 324 322 320 318 316 315 315 315 315 314 313 314 317 320 322 324 326 326 326 325 324 322 320 317 314 312 310 308 305 300 294 291 290 294 297 297 297 298 299 299 299 298 300 302 304 304 304 304 305 306 305 304 304 304 304 304 304 304 306 307 308 309 310 310 310
323 323 323 323 323 323 323 324 324 324 323 324 326 327 328 329 328 327 325 325 325 323 321 319 317 316 315 315 316 317 315 314 315 316 318 319 321 322 323 323 323 321 320 319 318 317 315 313 310 307 302 296 291 290 292 295 297 298 299 299 298 298 298 299 301 303 303 304 305 306 307 307 307 306 305 304 303 303 305 306 307 308 309 310 310 310
327 326 325 323 322 323 324 324 324 324 324 325 326 327 328 329 330 329 328 327 325 323 321 319 318 316 314 314 316 317 316 315 316 317 318 320 320 321 321 321 321 320 318 317 317 316 315 313 311 309 306 301 296 292 292 294 297 298 298 297 297 297 298 299 301 302 304 305 307 308 309 310 310 310 307 304 303 304 305 306 307 308 309 310 310 310
328 327 326 325 324 324 325 326 325 325 325 327 327 328 328 329 329 330 329 327 325 324 322 321 319 316 314 314 315 316 316 316 315 316 318 320 321 321 320 321 321 319 316 315 314 314 312 311 309 309 309 307 303 298 295 295 296 297 296 297 298 299 299 300 303 305 307 308 309 310 311 311 311 311 309 306 304 303 303 304 305 306 308 309 310 311
Height
1451 1450 1449 1448 1447 1445 1443 1443 1442 1440 1438 1438 1437 1436 1434 1433 1432 1431 1431 1429 1428 1427 1426 1425 1424 1423 1421 1420 1419 1418 1417 1415 1414 1413 1412 1411 1410 1409 1408 1407 1406 1405 1403 1402 1401 1400 1398 1397 1396 1395 1393 1392 1391 1390 1389 1388 1388 1387 1386 1385 1384 1383 1383 1382 1381 1380 1379 1379 1378 1378 1377 1377 1376 1376 1375 1375 1374 1374 1373 1373 1373 1373 1373 1373 1373 1373
1449 1448 1447 1446 1445 1443 1441 1441 1441 1440 1438 1436 1435 1434 1433 1431 1430 1429 1428 1428 1427 1426 1425 1423 1422 1420 1419 1418 1416 1415 1414 1413 1412 1411 1410 1409 1408 1407 1406 1405 1403 1402 1401 1399 1398 1397 1395 1394 1393 1392 1391 1390 1389 1388 1387 1386 1385 1384 1383 1382 1382 1381 1380 1379 1378 1378 1377 1376 1375 1375 1374 1373 1373 1373 1372 1371 1371 1371 1370 1370 1370 1370 1369 1369 1369 1369
1448 1446 1445 1444 1443 1442 1440 1439 1438 1438 1437 1435 1433 1432 1431 1430 1428 1427 1426 1425 1424 1424 1423 1422 1420 1418 1416 1415 1414 1413 1412 1411 1410 1409 1408 1407 1406 1405 1404 1402 1401 1399 1398 1396 1395 1394 1393 1392 1390 1389 1388 1387 1386 1385 1384 1383 1383 1382 1381 1380 1379 1378 1377 1376 1375 1375 1374 1373 1373 1372 1371 1370 1370 1369 1368 1368 1368 1368 1367 1367 1367 1366 1366 1366 1366 1366
1447 1445 1443 1443 1442 1441 1439 1438 1437 1436 1435 1433 1432 1430 1429 1428 1427 1426 1425 1424 1423 1421 1420 1419 1418 1416 1414 1413 1412 1411 1410 1409 1408 1408 1406 1405 1404 1402 1401 1399 1398 1396 1395 1393 1392 1391 1390 1389 1388 1387 1386 1385 1384 1383 1382 1381 1380 1379 1378 1377 1376 1375 1374 1373 1373 1372 1371 1370 1369 1368 1368 1367 1366 1366 1365 1365 1364 1364 1364 1363 1363 1363 1363 1363 1362 1362
1446 1444 1443 1442 1440 1439 1438 1437 1435 1434 1433 1432 1430 1429 1428 1427 1425 1424 1423 1422 1421 1419 1418 1417 1416 1415 1413 1412 1410 1409 1408 1408 1406 1405 1404 1402 1401 1399 1398 1396 1395 1393 1392 1391 1390 1389 1388 1387 1386 1384 1383 1382 1381 1380 1379 1378 1377 1376 1375 1374 1373 1373 1372 1371 1370 1369 1368 1367 1366 1365 1364 1364 1363 1363 1362 1362 1361 1361 1360 1360 1359 1359 1359 1359 1359 1358
1444 1444 1442 1441 1439 1438 1436 1435 1434 1433 1431 1430 1428 1428 1426 1425 1424 1422 1421 1420 1419 1418 1416 1415 1414 1413 1412 1410 1409 1408 1407 1405 1404 1402 1401 1399 1398 1396 1395 1393 1392 1391 1390 1388 1388 1387 1385 1384 1383 1382 1381 1380 1379 1378 1377 1376 1375 1374 1373 1372 1371 1370 1368 1368 1367 1366 1365 1364 1363 1362 1361 1361 1360 1359 1359 1358 1358 1357 1357 1357 1356 1356 1356 1355 1355 1355
1443 1442 1441 1440 1438 1436 1435 1434 1433 1431 1430 1428 1427 1426 1424 1423 1422 1421 1419 1418 1418 1416 1415 1413 1412 1411 1410 1408 1407 1406 1404 1403 1401 1399 1398 1396 1395 1393 1392 1391 1390 1388 1387 1386 1385 1384 1383 1382 1381 1380 1378 1378 1376 1375 1374 1373 1372 1371 1370 1369 1368 1367 1366 1364 1363 1363 1362 1361 1360 1359 1358 1357 1357 1356 1355 1355 1354 1354 1353 1353 1353 1353 1352 1352 1352 1352
1441 1440 1440 1439 1437 1434 1433 1433 1432 1431 1429 1427 1425 1424 1422 1421 1420 1419 1418 1417 1416 1415 1413 1411 1410 1409 1408 1406 1405 1403 1402 1400 1398 1396 1394 1393 1392 1391 1389 1388 1387 1386 1385 1384 1383 1382 1381 1380 1378 1377 1376 1375 1374 1373 1371 1370 1369 1368 1367 1366 1364 1363 1363 1361 1360 1359 1358 1358 1357 1356 1355 1354 1354 1353 1353 1352 1351 1351 1351 1350 1350 1349 1349 1349 1349 1348
1440 1438 1437 1437 1436 1434 1431 1430 1430 1430 1429 1427 1425 1423 1421 1419 1418 1417 1417 1415 1414 1413 1412 1410 1408 1406 1405 1404 1403 1401 1399 1398 1396 1394 1392 1391 1389 1388 1387 1386 1385 1384 1383 1382 1380 1379 1378 1377 1376 1374 1373 1372 1371 1369 1368 1367 1366 1365 1363 1363 1361 1360 1359 1358 1358 1357 1356 1355 1354 1353 1353 1352 1351 1350 1350 1349 1349 1348 1348 1347 1347 1346 1346 1346 1345 1345
1439 1438 1436 1435 1434 1433 1431 1428 1427 1427 1427 1426 1424 1423 1421 1419 1417 1414 1413 1413 1412 1411 1410 1408 1406 1404 1402 1401 1400 1398 1397 1395 1393 1392 1391 1389 1388 1387 1385 1384 1383 1381 1380 1379 1378 1377 1375 1374 1373 1371 1370 1369 1368 1366 1365 1364 1363 1362 1361 1360 1358 1358 1357 1356 1355 1354 1353 1352 1352 1351 1350 1349 1348 1348 1347 1347 1346 1346 1345 1344 1344 1343 1343 1343 1343 1342
1438 1437 1435 1433 1432 1431 1430 1428 1426 1425 1425 1424 1423 1422 1421 1420 1417 1414 1411 1410 1409 1408 1408 1406 1405 1403 1400 1398 1397 1396 1394 1392 1390 1389 1388 1387 1386 1385 1383 1382 1381 1379 1378 1376 1375 1374 1372 1371 1370 1368 1367 1366 1364 1363 1362 1361 1360 1359 1358 1357 1356 1355 1354 1353 1353 1352 1351 1350 1349 1348 1348 1347 1346 1345 1345 1344 1343 1343 1342 1342 1341 1341 1340 1340 1339 1339
1436 1434 1433 1431 1430 1428 1427 1426 1425 1424 1424 1423 1421 1419 1418 1418 1417 1415 1412 1409 1407 1406 1405 1403 1403 1401 1399 1397 1395 1393 1392 1390 1388 1387 1385 1384 1383 1383 1381 1379 1378 1376 1375 1373 1372 1370 1369 1368 1366 1365 1364 1363 1361 1360 1359 1358 1357 1356 1355 1354 1353 1353 1352 1351 1350 1349 1348 1348 1347 1346 1345 1344 1343 1343 1342 1341 1341 1340 1339 1339 1338 1338 1337 1337 1337 1336
1434 1433 1431 1430 1428 1427 1426 1425 1424 1423 1423 1422 1420 1418 1416 1416 1415 1414 1411 1408 1406 1405 1403 1401 1400 1398 1397 1396 1394 1392 1390 1388 1387 1385 1384 1383 1382 1381 1379 1377 1375 1373 1372 1370 1368 1367 1366 1364 1363 1362 1361 1360 1358 1358 1357 1356 1354 1353 1353 1352 1351 1350 1349 1348 1348 1347 1346 1345 1344 1343 1343 1342 1341 1340 1339 1338 1338 1337 1337 1336 1335 1335 1334 1334 1333 1333
1433 1431 1430 1428 1428 1427 1426 1425 1423 1422 1421 1420 1419 1417 1415 1414 1413 1412 1409 1407 1405 1404 1402 1400 1397 1396 1394 1394 1393 1391 1389 1387 1385 1383 1382 1381 1380 1379 1377 1375 1373 1371 1369 1368 1366 1364 1363 1362 1360 1359 1358 1357 1356 1355 1354 1353 1352 1351 1350 1349 1349 1348 1347 1346 1345 1344 1343 1343 1342 1341 1340 1339 1338 1337 1337 1336 1335 1334 1333 1333 1333 1332 1331 1331 1330 1330
1432 1430 1429 1428 1427 1426 1425 1424 1423 1421 1420 1418 1418 1416 1414 1413 1411 1410 1408 1406 1403 1402 1400 1398 1395 1393 1393 1392 1391 1390 1388 1386 1384 1382 1380 1379 1378 1377 1376 1373 1371 1368 1367 1365 1363 1361 1360 1360 1358 1357 1355 1354 1353 1352 1352 1351 1350 1349 1348 1348 1347 1346 1345 1343 1343 1342 1341 1340 1339 1338 1337 1336 1335 1334 1333 1333 1332 1331 1330 1330 1329 1328 1328 1328 1327 1326
1431 1430 1428 1427 1425 1424 1424 1423 1421 1419 1418 1417 1416 1414 1413 1411 1410 1408 1407 1405 1402 1400 1398 1396 1393 1391 1389 1389 1390 1389 1388 1386 1383 1381 1379 1376 1375 1374 1374 1372 1368 1366 1364 1363 1361 1359 1358 1357 1356 1355 1353 1352 1351 1350 1350 1349 1348 1347 1346 1345 1344 1343 1342 1341 1340 1339 1338 1337 1336 1335 1334 1333 1332 1332 1331 1330 1329 1328 1328 1327 1326 1325 1325 1324 1324 1323
1430 1428 1427 1425 1424 1423 1422 1421 1420 1418 1416 1415 1414 1413 1412 1410 1408 1407 1405 1403 1401 1399 1397 1395 1393 1389 1386 1385 1386 1387 1387 1385 1382 1379 1377 1374 1372 1371 1371 1370 1367 1364 1362 1361 1359 1358 1357 1355 1354 1353 1351 1350 1349 1348 1347 1346 1345 1344 1343 1343 1342 1340 1339 1338 1337 1336 1335 1334 1333 1332 1331 1330 1329 1328 1328 1327 1326 1325 1324 1324 1323 1323 1322 1321 1321 1320
1428 1427 1425 1424 1422 1421 1420 1419 1418 1416 1415 1414 1413 1411 1410 1409 1407 1405 1403 1402 1400 1398 1396 1394 1392 1389 1386 1384 1383 1384 1385 1383 1380 1377 1375 1372 1369 1368 1368 1368 1366 1363 1361 1359 1357 1356 1355 1353 1352 1351 1349 1348 1347 1346 1345 1344 1343 1342 1341 1340 1339 1338 1337 1336 1334 1333 1332 1331 1330 1329 1328 1328 1327 1326 1325 1324 1323 1323 1322 1321 1320 1320 1319 1318 1318 1317
1426 1425 1424 1422 1421 1419 1418 1418 1416 1415 1414 1413 1411 1409 1408 1406 1405 1403 1402 1400 1398 1396 1394 1392 1390 1388 1387 1384 1382 1382 1382 1381 1379 1376 1373 1370 1367 1365 1366 1365 1363 1361 1359 1357 1355 1354 1353 1352 1350 1348 1347 1346 1345 1344 1343 1342 1341 1340 1338 1338 1336 1335 1334 1333 1332 1330 1329 1328 1328 1327 1326 1325 1324 1323 1322 1321 1321 1320 1319 1318 1318 1317 1316 1315 1315 1314
1424 1423 1423 1421 1419 1418 1416 1415 1415 1414 1413 1411 1410 1408 1406 1404 1402 1401 1399 1398 1396 1394 1392 1391 1389 1387 1385 1383 1381 1379 1379 1379 1377 1374 1371 1368 1365 1363 1363 1363 1362 1359 1357 1355 1353 1352 1351 1349 1348 1346 1345 1344 1343 1342 1341 1340 1338 1337 1336 1335 1333 1332 1331 1330 1328 1328 1327 1326 1325 1324 1323 1322 1321 1320 1319 1318 1318 1317 1316 1315 1314 1314 1313 1313 1312 1311
1422 1421 1420 1420 1419 1416 1414 1413 1413 1412 1411 1410 1408 1406 1404 1402 1400 1398 1397 1395 1394 1393 1392 1390 1388 1386 1384 1382 1379 1377 1377 1377 1376 1373 1370 1367 1363 1362 1361 1361 1360 1357 1354 1352 1351 1350 1349 1347 1346 1344 1343 1342 1341 1340 1338 1337 1336 1334 1333 1332 1330 1329 1328 1327 1326 1325 1324 1323 1322 1321 1320 1319 1318 1318 1317 1316 1315 1314 1313 1313 1312 1311 1310 1309 1309 1308
1420 1418 1418 1418 1417 1415 1413 1412 1410 1410 1409 1408 1406 1404 1402 1399 1397 1396 1394 1394 1393 1392 1390 1388 1386 1384 1383 1380 1378 1376 1376 1376 1374 1372 1369 1365 1361 1359 1359 1359 1358 1355 1353 1350 1348 1348 1347 1346 1344 1342 1341 1340 1338 1337 1336 1334 1333 1332 1330 1329 1328 1326 1325 1324 1323 1322 1321 1320 1319 1319 1318 1317 1316 1315 1314 1313 1312 1311 1310 1310 1309 1308 1307 1307 1306 1305
1419 1417 1416 1415 1414 1413 1412 1410 1409 1408 1407 1406 1404 1402 1400 1399 1397 1396 1395 1393 1392 1390 1388 1386 1384 1382 1381 1378 1376 1374 1374 1373 1373 1371 1369 1365 1360 1358 1358 1358 1356 1353 1350 1348 1347 1346 1345 1343 1342 1340 1338 1337 1336 1334 1333 1332 1330 1329 1328 1326 1325 1324 1323 1322 1321 1320 1319 1318 1317 1316 1315 1314 1313 1312 1311 1310 1309 1308 1307 1307 1306 1305 1304 1304 1303 1303
1417 1416 1414 1413 1413 1411 1410 1409 1408 1407 1406 1404 1403 1402 1400 1399 1397 1395 1393 1392 1390 1388 1385 1383 1382 1380 1378 1376 1374 1373 1372 1372 1372 1370 1368 1364 1360 1357 1356 1356 1354 1351 1348 1347 1346 1344 1343 1341 1339 1337 1336 1334 1333 1332 1331 1329 1328 1327 1325 1324 1323 1322 1321 1320 1318 1318 1316 1315 1314 1313 1312 1311 1310 1309 1308 1307 1306 1305 1304 1304 1303 1302 1301 1301 1300 1299
1416 1414 1413 1412 1411 1410 1409 1408 1407 1406 1405 1404 1403 1402 1400 1397 1395 1393 1391 1389 1388 1386 1384 1383 1380 1378 1376 1374 1373 1371 1369 1370 1370 1369 1367 1363 1359 1356 1355 1354 1353 1350 1346 1344 1343 1343 1341 1338 1336 1335 1333 1332 1331 1329 1328 1327 1325 1324 1323 1322 1321 1319 1318 1317 1316 1315 1313 1312 1311 1310 1309 1308 1307 1306 1305 1304 1303 1303 1302 1301 1300 1299 1298 1298 1297 1296
1414 1413 1412 1410 1409 1409 1408 1407 1406 1405 1404 1403 1401 1398 1396 1394 1392 1390 1388 1388 1386 1385 1383 1381 1379 1377 1375 1373 1372 1369 1368 1368 1367 1367 1365 1362 1358 1355 1353 1353 1352 1349 1345 1342 1341 1340 1339 1336 1334 1332 1331 1329 1328 1327 1325 1324 1323 1322 1321 1319 1318 1317 1316 1314 1313 1312 1310 1309 1308 1307 1306 1305 1304 1303 1302 1301 1301 1300 1299 1298 1297 1296 1296 1295 1294 1293
1411 1410 1409 1408 1408 1407 1406 1405 1403 1402 1401 1400 1398 1397 1395 1393 1391 1388 1387 1386 1385 1384 1383 1380 1378 1375 1373 1372 1370 1368 1366 1365 1365 1364 1363 1361 1358 1354 1352 1351 1350 1348 1344 1341 1339 1338 1337 1334 1332 1329 1328 1326 1325 1324 1323 1322 1321 1319 1318 1317 1316 1314 1313 1311 1310 1309 1307 1306 1305 1304 1303 1302 1301 1300 1299 1299 1298 1297 1296 1295 1294 1293 1293 1292 1291 1290
1409 1408 1407 1406 1405 1404 1403 1402 1400 1399 1398 1396 1395 1394 1393 1392 1389 1388 1386 1384 1384 1383 1381 1379 1377 1375 1373 1371 1369 1367 1365 1363 1362 1362 1362 1360 1357 1353 1351 1350 1349 1347 1343 1339 1337 1335 1334 1333 1330 1328 1326 1324 1323 1322 1321 1320 1318 1317 1316 1314 1313 1311 1310 1308 1307 1306 1305 1303 1303 1301 1300 1300 1299 1298 1297 1296 1295 1294 1293 1292 1291 1291 1290 1289 1287 1286
1407 1406 1405 1404 1403 1402 1400 1398 1397 1396 1394 1393 1393 1392 1391 1390 1388 1386 1384 1383 1383 1382 1380 1378 1376 1374 1372 1370 1368 1365 1363 1361 1360 1361 1360 1358 1355 1352 1350 1349 1347 1345 1343 1338 1334 1331 1330 1330 1329 1327 1324 1323 1322 1320 1319 1317 1316 1314 1313 1311 1309 1308 1307 1306 1304 1303 1302 1301 1300 1299 1298 1297 1296 1295 1294 1293 1292 1291 1290 1289 1288 1288 1287 1285 1284 1282
1404 1403 1402 1401 1400 1398 1397 1395 1394 1393 1392 1391 1390 1389 1388 1388 1386 1385 1383 1383 1382 1380 1378 1377 1375 1373 1372 1369 1367 1364 1361 1359 1359 1360 1359 1357 1354 1351 1349 1347 1346 1344 1343 1339 1333 1328 1325 1325 1326 1326 1324 1322 1320 1318 1316 1315 1313 1311 1309 1308 1306 1305 1304 1303 1302 1301 1300 1298 1297 1296 1295 1294 1293 1292 1291 1290 1289 1288 1287 1286 1286 1285 1283 1282 1280 1279
1402 1401 1399 1398 1397 1395 1394 1393 1391 1390 1389 1388 1388 1387 1386 1385 1384 1383 1382 1381 1380 1379 1378 1376 1374 1372 1371 1369 1367 1364 1359 1356 1357 1358 1358 1356 1353 1349 1348 1346 1344 1342 1342 1340 1337 1330 1323 1320 1320 1322 1322 1320 1318 1316 1314 1313 1311 1309 1307 1305 1303 1302 1301 1300 1299 1298 1297 1296 1294 1293 1292 1291 1289 1288 1288 1287 1286 1285 1284 1283 1283 1282 1280 1279 1277 1276
1400 1399 1397 1396 1394 1393 1392 1391 1389 1388 1387 1386 1386 1385 1384 1383 1383 1382 1381 1380 1379 1378 1376 1374 1373 1371 1370 1369 1367 1363 1359 1355 1354 1356 1356 1355 1351 1348 1347 1345 1343 1341 1340 1340 1338 1334 1328 1320 1317 1317 1318 1318 1316 1314 1312 1311 1309 1307 1305 1303 1301 1299 1298 1298 1297 1295 1294 1292 1291 1290 1288 1288 1286 1285 1284 1283 1282 1281 1281 1280 1279 1279 1278 1276 1274 1273
1398 1397 1396 1394 1393 1392 1390 1389 1388 1387 1386 1385 1384 1383 1383 1382 1381 1380 1379 1378 1377 1376 1375 1373 1371 1369 1368 1366 1364 1361 1358 1354 1353 1354 1355 1353 1350 1347 1345 1344 1342 1339 1338 1337 1336 1334 1330 1324 1318 1315 1314 1314 1313 1312 1310 1308 1307 1306 1304 1302 1299 1297 1296 1295 1294 1293 1291 1289 1288 1286 1285 1284 1283 1282 1281 1280 1279 1278 1278 1277 1276 1276 1275 1273 1272 1270
1397 1395 1394 1393 1392 1390 1389 1388 1387 1386 1385 1384 1383 1382 1381 1380 1379 1378 1377 1376 1375 1374 1373 1372 1370 1368 1366 1364 1361 1358 1355 1353 1352 1353 1353 1352 1350 1347 1344 1343 1341 1338 1336 1334 1333 1331 1328 1324 1321 1317 1313 1311 1310 1310 1309 1307 1305 1303 1302 1300 1298 1295 1293 1292 1291 1290 1288 1286 1285 1283 1282 1281 1280 1279 1278 1277 1276 1275 1274 1273 1273 1272 1272 1271 1269 1268
1395 1394 1393 1392 1390 1389 1388 1387 1386 1384 1383 1382 1381 1380 1379 1378 1377 1376 1375 1374 1373 1372 1371 1370 1368 1367 1365 1363 1360 1356 1353 1350 1350 1351 1352 1351 1349 1346 1343 1341 1339 1338 1335 1333 1331 1329 1326 1323 1320 1318 1314 1310 1307 1306 1306 1305 1303 1301 1299 1298 1296 1294 1292 1291 1289 1288 1286 1284 1282 1281 1279 1278 1277 1276 1274 1273 1273 1272 1271 1270 1269 1268 1268 1268 1267 1266
1394 1393 1392 1391 1389 1388 1387 1386 1384 1383 1382 1381 1380 1378 1378 1376 1375 1374 1373 1372 1371 1370 1369 1368 1366 1365 1363 1361 1358 1355 1351 1349 1348 1349 1349 1349 1347 1345 1342 1339 1338 1336 1335 1332 1329 1327 1325 1321 1318 1316 1314 1311 1306 1303 1302 1302 1301 1299 1297 1295 1294 1292 1290 1289 1288 1286 1284 1282 1280 1278 1277 1276 1274 1273 1272 1271 1269 1268 1268 1267 1266 1265 1264 1263 1263 1262
1394 1392 1391 1390 1389 1387 1386 1384 1383 1382 1381 1379 1378 1377 1376 1374 1373 1372 1371 1369 1368 1367 1366 1365 1363 1362 1360 1358 1356 1354 1351 1348 1347 1347 1347 1346 1346 1344 1342 1338 1336 1335 1334 1331 1328 1326 1323 1320 1317 1314 1312 1310 1307 1303 1300 1298 1297 1296 1294 1293 1291 1290 1288 1286 1285 1284 1282 1280 1278 1276 1275 1274 1272 1271 1269 1268 1266 1265 1263 1263 1262 1261 1260 1259 1258 1258
1393 1392 1390 1389 1388 1387 1385 1383 1382 1381 1379 1378 1376 1375 1374 1373 1371 1370 1368 1367 1366 1365 1363 1362 1360 1359 1358 1356 1354 1352 1350 1348 1346 1345 1345 1344 1344 1343 1340 1337 1334 1333 1333 1330 1328 1325 1323 1319 1316 1313 1310 1308 1305 1303 1300 1298 1295 1293 1290 1289 1288 1287 1286 1284 1283 1282 1280 1278 1276 1275 1273 1272 1270 1268 1266 1265 1263 1262 1260 1258 1257 1257 1256 1255 1254 1253
1392 1391 1389 1388 1387 1386 1384 1383 1381 1379 1378 1377 1375 1373 1372 1371 1369 1368 1367 1365 1364 1363 1362 1360 1358 1357 1355 1353 1351 1350 1348 1347 1345 1344 1343 1342 1341 1340 1338 1336 1333 1331 1329 1328 1327 1324 1322 1319 1316 1313 1309 1306 1303 1300 1298 1297 1294 1291 1288 1286 1285 1284 1283 1282 1281 1280 1278 1277 1274 1272 1270 1269 1268 1266 1264 1262 1260 1259 1257 1255 1254 1253 1253 1251 1250 1248
1392 1390 1388 1387 1386 1385 1383 1382 1380 1378 1377 1375 1373 1372 1371 1369 1368 1366 1365 1363 1362 1361 1360 1358 1357 1355 1353 1351 1349 1347 1346 1344 1343 1342 1341 1339 1338 1338 1336 1334 1331 1329 1327 1326 1324 1322 1320 1318 1314 1312 1309 1306 1302 1299 1296 1294 1292 1290 1288 1285 1282 1280 1279 1279 1279 1277 1276 1274 1272 1270 1268 1266 1265 1263 1262 1260 1258 1257 1255 1253 1252 1251 1250 1249 1247 1245
1391 1389 1388 1386 1385 1383 1382 1380 1379 1377 1375 1374 1372 1370 1369 1368 1366 1364 1363 1362 1360 1359 1358 1357 1355 1353 1350 1348 1347 1345 1343 1342 1341 1339 1338 1337 1336 1335 1333 1332 1329 1327 1325 1323 1322 1320 1318 1316 1313 1310 1307 1305 1302 1298 1295 1293 1290 1289 1287 1285 1281 1278 1276 1276 1276 1274 1273 1271 1270 1268 1266 1264 1263 1261 1259 1257 1256 1254 1253 1251 1249 1248 1247 1246 1245 1243
1390 1388 1387 1385 1383 1382 1380 1379 1377 1376 1374 1373 1371 1369 1368 1367 1365 1364 1362 1360 1358 1357 1356 1355 1353 1351 1348 1345 1343 1342 1341 1340 1338 1337 1336 1335 1334 1333 1331 1329 1328 1326 1324 1322 1319 1317 1316 1314 1312 1308 1306 1303 1301 1297 1293 1290 1288 1287 1285 1283 1280 1276 1274 1272 1272 1272 1271 1269 1267 1266 1264 1262 1260 1258 1256 1254 1252 1250 1249 1248 1247 1246 1244 1243 1241 1240
1389 1387 1385 1384 1383 1381 1379 1377 1376 1374 1373 1371 1369 1368 1367 1366 1364 1363 1361 1359 1358 1356 1354 1353 1352 1349 1347 1343 1341 1339 1338 1337 1336 1335 1334 1333 1331 1330 1329 1327 1325 1324 1322 1320 1317 1315 1313 1311 1309 1307 1304 1302 1299 1296 1292 1288 1285 1284 1282 1281 1279 1277 1273 1269 1268 1268 1268 1267 1264 1263 1261 1260 1258 1255 1253 1251 1249 1247 1246 1245 1244 1243 1241 1240 1238 1237
1388 1386 1384 1383 1381 1379 1378 1376 1374 1373 1371 1369 1368 1367 1365 1364 1363 1362 1360 1358 1356 1355 1353 1352 1350 1348 1346 1343 1340 1338 1335 1334 1333 1332 1331 1330 1329 1328 1326 1325 1323 1322 1320 1318 1316 1313 1310 1308 1306 1304 1302 1300 1297 1294 1290 1287 1284 1281 1279 1278 1277 1276 1273 1269 1267 1266 1265 1263 1262 1260 1259 1257 1255 1253 1251 1248 1247 1245 1243 1242 1240 1238 1237 1236 1235 1233
1386 1385 1383 1382 1380 1378 1376 1375 1373 1372 1370 1368 1367 1365 1364 1363 1362 1361 1359 1357 1355 1353 1352 1350 1349 1347 1344 1341 1339 1337 1334 1332 1330 1329 1328 1327 1326 1325 1324 1323 1321 1319 1318 1316 1314 1311 1309 1306 1303 1300 1298 1297 1295 1292 1288 1285 1282 1279 1277 1275 1274 1273 1271 1268 1267 1265 1263 1260 1258 1257 1256 1255 1253 1251 1248 1246 1244 1242 1240 1239 1237 1235 1233 1232 1231 1229
1385 1383 1382 1380 1378 1377 1375 1373 1372 1370 1368 1367 1365 1364 1363 1362 1360 1359 1358 1356 1354 1352 1350 1349 1348 1346 1343 1340 1338 1336 1333 1330 1328 1326 1325 1324 1323 1322 1321 1320 1318 1317 1315 1313 1311 1309 1307 1304 1301 1298 1296 1293 1291 1288 1286 1283 1280 1277 1274 1273 1272 1270 1268 1266 1265 1263 1262 1259 1257 1255 1253 1253 1251 1249 1247 1243 1241 1239 1237 1235 1234 1232 1230 1228 1227 1225
1384 1382 1381 1379 1377 1375 1374 1372 1371 1369 1368 1366 1364 1363 1362 1361 1359 1358 1356 1354 1353 1351 1349 1347 1346 1344 1342 1339 1337 1335 1332 1329 1327 1325 1323 1322 1321 1319 1318 1317 1316 1314 1313 1310 1308 1306 1304 1301 1299 1297 1295 1292 1288 1285 1282 1280 1278 1276 1273 1271 1270 1268 1266 1264 1262 1261 1260 1258 1256 1253 1252 1251 1249 1247 1244 1241 1238 1236 1233 1231 1230 1228 1227 1225 1223 1221
1383 1381 1379 1378 1376 1374 1373 1371 1370 1368 1367 1365 1363 1362 1361 1359 1358 1356 1354 1353 1351 1349 1348 1346 1344 1342 1340 1338 1336 1334 1332 1329 1326 1324 1322 1320 1318 1317 1316 1314 1313 1311 1309 1307 1305 1303 1300 1298 1296 1295 1293 1290 1287 1283 1279 1277 1276 1274 1272 1270 1268 1266 1264 1262 1260 1259 1258 1256 1254 1252 1251 1249 1247 1245 1242 1238 1235 1232 1229 1227 1226 1225 1223 1222 1220 1218
1382 1380 1379 1377 1375 1374 1372 1370 1369 1368 1366 1364 1362 1361 1359 1358 1357 1355 1353 1352 1350 1348 1346 1344 1343 1340 1338 1336 1334 1332 1330 1328 1326 1323 1321 1319 1317 1315 1313 1312 1310 1308 1306 1303 1301 1299 1297 1294 1293 1291 1290 1288 1285 1281 1278 1275 1273 1272 1271 1269 1267 1265 1263 1260 1258 1257 1256 1254 1252 1250 1249 1247 1245 1243 1240 1237 1233 1229 1226 1223 1222 1220 1219 1218 1217 1216
1381 1379 1378 1377 1375 1373 1371 1370 1368 1367 1365 1363 1361 1359 1358 1356 1355 1353 1352 1350 1349 1347 1345 1343 1341 1339 1337 1334 1332 1330 1328 1326 1324 1322 1319 1318 1316 1314 1312 1310 1308 1305 1303 1300 1298 1295 1293 1290 1288 1288 1287 1286 1284 1281 1278 1274 1272 1271 1269 1268 1266 1264 1262 1259 1257 1255 1253 1252 1249 1247 1245 1243 1242 1240 1238 1235 1231 1227 1223 1220 1218 1217 1216 1215 1214 1213
1380 1378 1377 1376 1374 1373 1371 1369 1367 1366 1364 1362 1360 1358 1357 1355 1353 1352 1350 1349 1347 1345 1343 1342 1340 1338 1336 1333 1331 1329 1328 1325 1323 1320 1318 1316 1315 1313 1311 1308 1306 1304 1301 1298 1295 1293 1290 1288 1285 1283 1283 1283 1283 1281 1278 1275 1272 1270 1268 1266 1264 1263 1260 1258 1255 1253 1251 1249 1247 1244 1242 1240 1238 1237 1235 1233 1229 1225 1221 1218 1215 1213 1212 1212 1211 1209